Tracking 27112 objects as of 26-Mar-2023
HD Live streaming from Space Station
objects crossing your sky now

ATLAS CENTAUR R/B

Track ATLAS CENTAUR R/B now!


NORAD ID: 10976
Int'l Code: 1978-068B
Perigee: 604.9 km
Apogee: 36,245.1 km
Inclination: 21.0 °
Period: 647.6 minutes
Semi major axis: 24795 km
RCS: 16.8333 m2 (large)
Launch date: June 29, 1978
Source: United States (US)
Launch site: AIR FORCE EASTERN TEST RANGE (AFETR)

Note: This is a ROCKET BODY
Your satellite tracking list
Your tracking list is empty




NASA's NSSDC Master Catalog

Two Line Element Set (TLE):
1 10976U 78068B   23084.40542240  .00000018  00000-0  80938-3 0  9990
2 10976  21.0334 193.9319 7186697 112.8829 353.0487  2.22346665359911
Source of the keplerian elements: AFSPC